Location: Bukovany
(49.8234°N, 14.6297°E)
Time: 07:11:25
(UTC+00:00)

Cosmos 1140 Rocket - Pass Details

Date: 17 November 2025
Orbit: 740 x 761 km, 74.1° (Epoch: 12 December)

Event Time Altitude Azimuth Distance (km) Brightness Sun altitude
Rises 15:53:26 0° 189° (S) 3,197 7.2 -6.4°
Reaches altitude 10° 15:55:49 10° 186° (S) 2,273 6.3 -6.7°
Maximum altitude 16:00:52 58° 108° (ESE) 874 3.6 -7.5°
Drops below altitude 10° 16:05:56 10° 30° (NNE) 2,276 5.5 -8.2°
Enters shadow 16:07:57 - 27° (NNE) 3,059 6.2 -8.5°
